Regional Weather Roundup
Issued by NWS Wakefield, VA

Home | Current Version | Previous Version | Text Only | Print | Product List | Glossary On
Versions: 1 2 3 4 5 6 7 8 9 10 11 12 13 14 15 16 17 18 19 20 21 22 23 24 25 26 27 28 29 30 31 32 33 34 35 36 37 38 39 40 41 42 43 44 45 46 47 48 49 50
000
ASUS41 KAKQ 020714
RWRAKQ

REGIONAL WEATHER ROUNDUP
NATIONAL WEATHER SERVICE WAKEFIELD VA
300 AM EDT WED SEP 02 2015

Note: "fair" indicates few or no clouds below 12,000 feet with no
significant weather and/or obstructions to visibility. * = Denotes
station may not report precipitation (e.g., rain,snow,etc.),
thunder or fog.

VAZ042-051-052>054-056-020800-
NORTHERN VIRGINIA

CITY           SKY/WX    TMP DP  RH WIND       PRES   REMARKS
WASH NATIONAL  MOCLDY    79  72  79 CALM      30.03F
DULLES         MOCLDY    74  68  81 CALM      30.04F
FORT BELVOIR   PTCLDY    71  70  95 CALM      30.03S
QUANTICO       PTCLDY    74  71  91 NW7       30.03F
FREDERICKSBRG* PTCLDY    73  72  98 CALM      30.02F
STAFFORD*      PTCLDY    67  66  95 CALM      30.07F FOG
WARRENTON      CLOUDY    69  69  99 CALM      30.03F FOG
CULPEPER*      CLEAR     67  67  99 CALM      30.05F FOG
MANASSAS*      PTCLDY    72  70  94 CALM      30.04S
LEESBURG*      PTCLDY    73  70  88 N7        30.05F
WINCHESTER     PTCLDY    70  66  88 CALM      30.07S
FRONT ROYAL*   FAIR      70  66  88 CALM      30.06S
LURAY*         FAIR      70  68  94 CALM      30.08F
$$

VAZ048-049-060>072-079>083-020800-
CENTRAL AND SOUTH CENTRAL VIRGINIA

CITY           SKY/WX    TMP DP  RH WIND       PRES   REMARKS
RICHMOND       MOCLDY    75  69  81 S3        30.04F
CHESTERFIELD*  CLOUDY    73  61  64 CALM      30.06F
PETERSBURG*    MOCLDY    69  69 100 CALM      30.06S FOG
HANOVER        PTCLDY    71  70  96 CALM      30.06S
TAPPAHANNOCK*  PTCLDY    71  67  87 CALM      30.04F
QUINTON*       FAIR      70  69  97 W3        30.04F
CHARLOTTSVILLE CLOUDY    74  70  87 CALM      30.06F
GORDONSVILLE*  CLOUDY    68  67  97 CALM      30.05S
ORANGE*        MOCLDY    70  70 100 CALM      30.06F FOG
LOUISA*        MOCLDY    70  66  88 CALM      30.04F FOG
BUMPASS*       FAIR      71  69  94 CALM      30.05S
FARMVILLE*     MOCLDY    72  72 100 CALM      30.05F
CREWE*         PTSUNNY  N/A N/A N/A CALM      30.06S
FORT PICKETT*  PTSUNNY   71  69  93 S12       30.06F
CHASE CITY*    PTSUNNY   74  74 100 CALM      30.07S
CLARKSVILLE*   PTSUNNY   70  70 100 CALM      30.06F
SOUTH HILL*    CLEAR     68  68  98 CALM      30.12F
LAWRENCEVILLE* FAIR      68  68 100 CALM      30.06F
EMPORIA*       FOG       64  64 100 CALM      30.07S VSB 1/4
$$

VAZ088>098-020800-
SOUTHEAST VIRGINIA

CITY           SKY/WX    TMP DP  RH WIND       PRES   REMARKS
NORFOLK        CLEAR     73  71  93 S3        30.04F
VIRGINIA BEACH PTCLDY    75  69  81 SW3       30.03F
NORFOLK NAVAL  PTCLDY    74  71  91 S5        30.05F
WEST POINT*    MOCLDY    72  69  91 CALM      30.05F
SALUDA*        PTSUNNY   74  71  90 CALM      30.03S
NEWPORT NEWS   PTCLDY    74  72  93 SW3       30.04F
LANGLEY AFB    PTCLDY    73  72  94 W2        30.03S
FORT EUSTIS    PTCLDY    73 N/A N/A W1        30.02F
WILLIAMSBURG*  PTCLDY    75  73  94 CALM      30.05F
HR EXEC AP*      N/A     64  61  88 CALM      30.06F
FRANKLIN*      CLEAR     68  68  98 CALM      30.06S
WAKEFIELD      PTCLDY    71  68  90 CALM      30.05S
$$

VAZ020-022-025-037-045-020800-
WEST CENTRAL AND SOUTHWEST VIRGINIA

CITY           SKY/WX    TMP DP  RH WIND       PRES   REMARKS
STAUNTON*      MOCLDY    73  68  85 CALM      30.12F
WAYNESBORO*    CLOUDY    71  66  83 CALM      30.12S
HOT SPRINGS VA PTCLDY    67  64  88 NW6       30.24S
LYNCHBURG      MOCLDY    70  68  93 CALM      30.09F
DANVILLE       MOCLDY    70  67  90 SW3       30.07F
SOUTH BOSTON*  FAIR      70  69  95 CALM      30.07S
MARTINSVILLE   MOCLDY    69  69 100 CALM      30.12F FOG
ROANOKE        PTCLDY    72  67  84 CALM      30.13F
BLACKSBURG     CLEAR     65  65 100 CALM      30.20F FOG
DUBLIN*        CLOUDY    66  66 100 CALM      30.19S FOG
MARION*        PTCLDY    64  62  94 CALM      30.23S
HILLSVILLE*    PTCLDY    66  66  97 CALM      30.19F
RICHLANDS*     FAIR      67  38  33 CALM      30.21S
WISE*          CLEAR     70  66  88 CALM      30.23S
ABINGDON*      CLEAR     69  64  86 CALM      30.18S
$$

MDZ021>025-VAZ099-100-020800-
SOUTHERN MARYLAND AND THE DELMARVA PENINSULA

CITY           SKY/WX    TMP DP  RH WIND       PRES   REMARKS
PATUXENT RIVER CLEAR     73  69  87 W3        30.02F
BAY BRIDGE APT   N/A     75  73  94 CALM      30.02F
LEONARDTOWN    NOT AVBL
DOVER          CLEAR     71  71 100 NW2       30.01F
GEORGETOWN     CLEAR     70  69  97 CALM      30.03F FOG
EASTON         NOT AVBL
CAMBRIDGE      CLEAR     72  68  88 CALM      30.02S
SALISBURY      CLEAR     70  69  97 CALM      30.03F
OCEAN CITY     CLEAR     74  71  91 W5        30.02F
WALLOPS ISLAND MOCLDY    73  71  93 CALM      30.03F
ACCOMACK*      PTCLDY    68  68 100 CALM      30.03F
$$

NCZ012>017-030>032-020800-
NORTH CENTRAL AND EASTERN NORTH CAROLINA

CITY           SKY/WX    TMP DP  RH WIND       PRES   REMARKS
ROANOKE RAPIDS FAIR      68  68 100 CALM      30.05F
RALEIGH        PTCLDY    71  68  90 CALM      30.07F
ELIZABETH CITY CLEAR     70  70 100 SW3       30.04F FOG
AHOSKIE*       CLEAR     67  67  98 CALM      30.06S FOG
EDENTON*       PTCLDY    70  68  95 CALM      30.05F
CURRITUCK*     CLEAR     71  69  93 CALM      30.05F
KILL DEVIL HLS CLEAR     73  70  89 CALM      30.04S
MANTEO         CLEAR     74  73  96 CALM      30.05S
CAPE HATTERAS  PTCLDY    74  72  93 W5        30.05S
TARBORO*       FAIR      68  67  96 CALM      30.06F
GOLDSBORO      CLEAR     71  70  98 CALM      30.05S
WASHINGTON     CLEAR     70  69  97 CALM      30.06S
GREENVILLE     CLEAR     70  70 100 CALM      30.07F FOG
NEW BERN       CLEAR     73  71  93 CALM      30.07S FOG
WILMINGTON     CLEAR     75  72  90 CALM      30.06F
$$

VAZ048-020800-
ELSEWHERE

CITY           SKY/WX    TMP DP  RH WIND       PRES   REMARKS
HARRISBURG PA  PTCLDY    70  65  84 CALM      30.04F
BALTIMORE      PTCLDY    72  70  93 CALM      30.02F
ANNAPOLIS      PTCLDY    76  74  93 CALM      30.02F FOG
ANDREWS AFB    PTCLDY    72  69  89 CALM      30.03F
PHILADELPHIA   CLEAR     74  71  91 CALM      30.03F FOG
HENDERSON NC   CLEAR     71  67  88 S5        30.07F
GREENSBORO     MOCLDY    74  65  73 CALM      30.09F
ROCKY MOUNT    CLEAR     69  68  96 CALM      30.06F FOG
$$

VAZ100-020800-
MARINE

STATION/POSITION TIME  TEMP    WIND        PRES    WAVE   SWELL
                       AIR SEA DIR/SP/G            HT/PER HT/PER
                 (UTC) (F)     (DEG/KT/KT) (MB)    (FT/S) (FT/S)
BRANDYWINE LGT   0612      76  240/  4/  4 1017.1F
CAPE MAY NJ      0600   73 81   CALM  /  1 1016.6F
LEWES DE         0600   76 76  320/  2/  3 1016.8F
15NM E FENWICK I 0650   78 79   CALM  /  2 1016.8F   2/ 8   2/ 8
OCEAN-CITY-INLET 0600   76 77  290/  4/  5 1016.2F
GOOSES REEF MD   0700   80 80  210/  4/  4 1017.7F
COVE POINT MD    0600   79     200/  5/  6 1017.6F
SOLOMONS ISLAND  0600      81                N/A
BISHOPS HEAD MD  0600   80 80  240/  6/  7 1016.2F
PINEY POINT MD   0605          240/  2/  4   N/A
POTOMAC MD       0700   79 80  240/  8/  8 1015.6F   1
CAMBRIDGE MD     0600   77 80   CALM  /  1 1016.1F
LEWISETTA VA     0600   78 81  250/  5/  6 1016.7F
RAPPAHANNOCK LGT 0600          220/  9/ 10 1017.7F
STINGRAY PT      0700   79 80  250/  6/  8 1017.2F   0
YORK RVR RNG VA  0600   78     250/  5/  5 1016.7F
YORKTOWN VA      0600   76 81  220/  5/  7 1016.9F
JAMESTOWN VA     0700   77 81  240/  2/  4   N/A
DOMINION TERM VA 0600   77     240/  5/  5 1017.2F
KIPTOPEKE VA     0600      80  220/  6/  7   N/A
CHES BAY BRIDGE  0600   76 79  180/  6/  7 1016.9F
CAPE HENRY VA    0600   75     200/  6/  9   N/A
CHESAPEAKE LGHT  0600   78     220/  9/  9 1018.0F
WILLOUBY STN VA  0600   77     270/  4/  5 1018.2F
CAPE HENRY BUOY  0628      80                N/A     1/ 8
1ST LANDING BUOY 0700      79              1016.8F   1
CAPE CHARLES BUO 0626      80                N/A     1/ 8   2/ 8
OFFSHORE WE BUOY 0611      79                N/A     2/10   2/10
64NM E OF VA BCH 0650   77 78  290/  4/  6 1016.9F   2/ 7   2/ 7
DUCK PIER NC     0600   77 78  250/  5/  5 1016.8F
44100 DUCK FRF   0624      80                N/A     2/14
44056 DUCK FRF   0611      80                N/A     1/10
OREGON INLET NC  0600   76 83   CALM  /  1 1017.5F
HATTERAS NC      0600   78 82  240/  4/  4 1017.4F
DIAMOND SHLS NC  0650   80 83  280/  8/ 10 1017.7F   2/ 9   2/ 9
CAPE LOOKOUT NC  0700   79     280/  9/ 10 1017.4F
$$


USA.gov is the U.S. government's official web portal to all federal, state and local government web resources and services.